Regional Weather Roundup
Issued by NWS Jackson, KY

Home | Current Version | Previous Version | Graphics & Text | Print | Product List | Glossary On
Versions: 1 2 3 4 5 6 7 8 9 10 11 12 13 14 15 16 17 18 19 20 21 22 23 24 25 26 27
000
ASUS43 KJKL 260110
RWRJKL

EAST KENTUCKY HOURLY WEATHER ROUNDUP
NATIONAL WEATHER SERVICE JACKSON KY
900 PM EDT TUE APR 25 2017

NOTE: "FAIR" INDICATES FEW OR NO CLOUDS BELOW 12,000 FEET WITH
NO SIGNIFICANT WEATHER AND/OR OBSTRUCTIONS TO VISIBILITY.

* THESE REPORTS ARE NOT UNDER NWS QUALITY CONTROL AND MAY NOT
  REPORT WEATHER SUCH AS PRECIPITATION AND FOG.

KYZ079-080-083-085-087-088-110-112-115-119-120-260200
...EASTERN KENTUCKY...

CITY           SKY/WX    TMP DP  RH WIND       PRES   REMARKS
JACKSON        CLEAR     67  55  65 S5        29.74R
LONDON         CLEAR     64  55  72 CALM      29.73S
SOMERSET*      CLEAR     63  52  67 CALM      29.74F
MONTICELLO*    CLEAR     59  55  87 CALM      29.75R
WILLIAMSBURG*  CLEAR     64  57  77 SE3       29.74R
MIDDLESBORO*   PTCLDY    63  59  88 CALM      29.75S
HARLAN APT*    CLOUDY    64  54  68 CALM      29.76S
PIKE CO APT*     N/A     66  55  66 CALM      29.75S
$$

KYZ035-036-041-042-044-050-067-078-099-260200
...CENTRAL KENTUCKY...

CITY           SKY/WX    TMP DP  RH WIND       PRES   REMARKS
MT STERLING*   CLEAR     66  57  72 CALM      29.73S
FLEMING/MASON* CLEAR     67  58  72 SW3       29.72R
DANVILLE*      CLOUDY    63  55  77 CALM      29.73S
LEXINGTON      CLEAR     66  56  70 S6        29.72R
FRANKFORT      CLEAR     68  54  60 S5        29.69S
LOUISVILLE     PTCLDY    72  56  57 SE8       29.66S
GLASGOW*       CLEAR     68  56  65 CALM      29.69F
BOWLING GREEN  PTCLDY    68  57  68 SE6       29.68S
$$

KYZ091>093-OHZ055-061-077-WVZ005-015-034-035-042-260200
...SOUTHERN OHIO/WEST VIRGINIA...

CITY           SKY/WX    TMP DP  RH WIND       PRES   REMARKS
COVINGTON      PTCLDY    65  57  75 S9        29.68S
COLUMBUS       PTCLDY    68  55  63 E8        29.71S
DAYTON         PTCLDY    65  54  67 SE8       29.68S
WILMINGTON     CLEAR     67  57  70 SE7       29.69S
HUNTINGTON     CLEAR     68  55  63 SE3       29.72S
CHARLESTON     CLOUDY    65  58  78 CALM      29.74R
PINEVILLE*     CLOUDY    63  59  87 MISG      29.81S
BECKLEY        CLOUDY    59  55  87 CALM      29.79R
BLUEFIELD      CLOUDY    56  55  97 CALM      29.80S
LOGAN CO APT*  CLOUDY    66  57  72 CALM      29.76R
$$

VAZ002-007-008-TNZ017-027-036-066-071-260200
...SOUTHWEST VIRGINIA/EAST TENNESSEE...

CITY           SKY/WX    TMP DP  RH WIND       PRES   REMARKS
WISE*          CLOUDY    63  54  72 W3        29.81S
ABINGDON*      CLOUDY    64  58  80 W3        29.79R
BRISTOL        PTCLDY    62  56  80 CALM      29.77S
MORRISTOWN*    CLOUDY    64  57  77 SE5       29.75
SEVIERVILLE*   CLEAR     64  55  72 SE3       29.75
KNOXVILLE      PTCLDY    65  54  67 E5        29.74S
OAK RIDGE      CLOUDY    69  54  58 SE3       29.75S
CROSSVILLE     CLEAR     63  54  72 CALM      29.76S
NASHVILLE      CLEAR     68  57  68 S7        29.69S
$$

...KEY TO REMARKS...
VSB - VISIBILITY IN MILES
WCI - WIND CHILL INDEX
HX  - HEAT INDEX

$$




USA.gov is the U.S. government's official web portal to all federal, state and local government web resources and services.